Wetterdaten: Donnerstag, 11.06.2015
Datum Zeit Auen-Temp. Temp gefhlt Luftfeuchte Luftdruck Regen Wind Richtung Richtung Taupunkt Windben
11.06.2015 00:00 13,3 C 13,3 C 87 % 1023,3 hPa 0,0 mm 0,3 km/h (0 Bft) O-NO 67 11,2 C 4,9 km/h (1 Bft)
11.06.2015 00:05 13,3 C 13,3 C 87 % 1023,3 hPa 0,0 mm 0,3 km/h (0 Bft) SO 135 11,2 C 0,0 km/h (0 Bft)
11.06.2015 00:10 13,3 C 13,3 C 87 % 1023,3 hPa 0,0 mm 0,3 km/h (0 Bft) O-SO 112 11,2 C 0,0 km/h (0 Bft)
11.06.2015 00:15 13,3 C 13,3 C 87 % 1023,2 hPa 0,0 mm 0,3 km/h (0 Bft) NO 45 11,2 C 2,8 km/h (1 Bft)
11.06.2015 00:20 13,3 C 13,3 C 87 % 1023,2 hPa 0,0 mm 0,5 km/h (0 Bft) O-NO 67 11,2 C 3,1 km/h (1 Bft)
11.06.2015 00:25 13,3 C 13,3 C 87 % 1023,2 hPa 0,0 mm 0,3 km/h (0 Bft) O-SO 112 11,2 C 0,0 km/h (0 Bft)
11.06.2015 00:30 13,3 C 13,3 C 87 % 1023,2 hPa 0,0 mm 0,3 km/h (0 Bft) O-SO 112 11,2 C 0,0 km/h (0 Bft)
11.06.2015 00:35 13,3 C 13,3 C 87 % 1023,0 hPa 0,0 mm 0,0 km/h (0 Bft) O-NO 67 11,2 C 0,0 km/h (0 Bft)
11.06.2015 00:40 13,3 C 13,2 C 87 % 1023,0 hPa 0,0 mm 0,0 km/h (0 Bft) O-NO 67 11,2 C 0,0 km/h (0 Bft)
11.06.2015 00:45 13,2 C 13,2 C 86 % 1023,0 hPa 0,0 mm 0,0 km/h (0 Bft) O-NO 67 10,9 C 0,0 km/h (0 Bft)
11.06.2015 00:50 13,2 C 13,2 C 86 % 1023,0 hPa 0,0 mm 0,0 km/h (0 Bft) O 90 10,9 C 0,0 km/h (0 Bft)
11.06.2015 00:55 13,2 C 13,2 C 87 % 1022,9 hPa 0,0 mm 0,0 km/h (0 Bft) O 90 11,1 C 0,0 km/h (0 Bft)
11.06.2015 01:00 13,2 C 13,2 C 87 % 1022,9 hPa 0,0 mm 0,0 km/h (0 Bft) SO 135 11,1 C 0,0 km/h (0 Bft)
11.06.2015 01:05 13,2 C 13,2 C 88 % 1022,9 hPa 0,0 mm 0,0 km/h (0 Bft) O-SO 112 11,3 C 0,0 km/h (0 Bft)
11.06.2015 01:10 13,1 C 13,1 C 86 % 1022,9 hPa 0,0 mm 0,0 km/h (0 Bft) O-NO 67 10,8 C 0,0 km/h (0 Bft)
11.06.2015 01:15 13,1 C 13,1 C 88 % 1022,6 hPa 0,0 mm 0,0 km/h (0 Bft) O-NO 67 11,2 C 0,0 km/h (0 Bft)
11.06.2015 01:20 13,1 C 13,1 C 88 % 1022,6 hPa 0,0 mm 0,0 km/h (0 Bft) O-SO 112 11,2 C 0,0 km/h (0 Bft)
11.06.2015 01:25 13,1 C 13,1 C 88 % 1022,6 hPa 0,0 mm 0,0 km/h (0 Bft) S-SO 157 11,2 C 0,0 km/h (0 Bft)
11.06.2015 01:30 13,0 C 13,1 C 86 % 1022,6 hPa 0,0 mm 0,0 km/h (0 Bft) O-NO 67 10,7 C 0,0 km/h (0 Bft)
11.06.2015 01:35 13,0 C 13,1 C 86 % 1022,4 hPa 0,0 mm 0,0 km/h (0 Bft) S-SO 157 10,7 C 0,0 km/h (0 Bft)
11.06.2015 01:40 13,0 C 13,1 C 86 % 1022,4 hPa 0,0 mm 0,0 km/h (0 Bft) S-SO 157 10,7 C 0,0 km/h (0 Bft)
11.06.2015 01:45 13,0 C 13,1 C 86 % 1022,4 hPa 0,0 mm 0,0 km/h (0 Bft) O 90 10,7 C 0,0 km/h (0 Bft)
11.06.2015 01:50 13,0 C 13,1 C 86 % 1022,4 hPa 0,0 mm 0,0 km/h (0 Bft) SO 135 10,7 C 0,0 km/h (0 Bft)
11.06.2015 01:55 13,0 C 13,1 C 86 % 1022,6 hPa 0,0 mm 0,0 km/h (0 Bft) O-SO 112 10,7 C 0,0 km/h (0 Bft)
11.06.2015 02:00 13,0 C 13,1 C 86 % 1022,6 hPa 0,0 mm 0,0 km/h (0 Bft) SO 135 10,7 C 0,0 km/h (0 Bft)
11.06.2015 02:05 13,0 C 13,1 C 86 % 1022,6 hPa 0,0 mm 0,0 km/h (0 Bft) S-SO 157 10,7 C 0,0 km/h (0 Bft)
11.06.2015 02:10 13,0 C 13,1 C 86 % 1022,6 hPa 0,0 mm 0,0 km/h (0 Bft) S 180 10,7 C 0,0 km/h (0 Bft)
11.06.2015 02:15 13,0 C 13,1 C 86 % 1022,2 hPa 0,0 mm 0,0 km/h (0 Bft) S-SO 157 10,7 C 0,0 km/h (0 Bft)
11.06.2015 02:20 13,0 C 13,1 C 86 % 1022,2 hPa 0,0 mm 0,0 km/h (0 Bft) S-SO 157 10,7 C 0,0 km/h (0 Bft)
11.06.2015 02:25 13,0 C 13,1 C 86 % 1022,2 hPa 0,0 mm 0,0 km/h (0 Bft) W 270 10,7 C 0,0 km/h (0 Bft)
11.06.2015 02:30 13,1 C 13,1 C 88 % 1022,2 hPa 0,0 mm 0,0 km/h (0 Bft) SW 225 11,2 C 0,0 km/h (0 Bft)
11.06.2015 02:35 13,0 C 13,1 C 86 % 1022,2 hPa 0,0 mm 0,3 km/h (0 Bft) S 180 10,7 C 0,0 km/h (0 Bft)
11.06.2015 02:40 13,0 C 13,1 C 86 % 1022,2 hPa 0,0 mm 0,3 km/h (0 Bft) SW 225 10,7 C 0,0 km/h (0 Bft)
11.06.2015 02:45 13,0 C 13,0 C 88 % 1022,2 hPa 0,0 mm 0,0 km/h (0 Bft) SO 135 11,1 C 0,0 km/h (0 Bft)
11.06.2015 02:50 13,0 C 13,1 C 86 % 1022,2 hPa 0,0 mm 0,0 km/h (0 Bft) SO 135 10,7 C 0,0 km/h (0 Bft)
11.06.2015 02:55 13,0 C 13,0 C 86 % 1021,9 hPa 0,0 mm 0,0 km/h (0 Bft) S 180 10,7 C 0,0 km/h (0 Bft)
11.06.2015 03:00 13,0 C 13,0 C 88 % 1021,9 hPa 0,0 mm 0,0 km/h (0 Bft) SO 135 11,1 C 0,0 km/h (0 Bft)
11.06.2015 03:05 13,0 C 13,0 C 88 % 1021,9 hPa 0,0 mm 0,0 km/h (0 Bft) SO 135 11,1 C 0,0 km/h (0 Bft)
11.06.2015 03:10 13,0 C 13,0 C 88 % 1021,9 hPa 0,0 mm 0,0 km/h (0 Bft) SW 225 11,1 C 0,0 km/h (0 Bft)
11.06.2015 03:15 13,0 C 13,0 C 88 % 1021,9 hPa 0,0 mm 0,0 km/h (0 Bft) S 180 11,1 C 0,0 km/h (0 Bft)
11.06.2015 03:20 13,0 C 12,9 C 88 % 1021,9 hPa 0,0 mm 0,0 km/h (0 Bft) S 180 11,1 C 0,0 km/h (0 Bft)
11.06.2015 03:25 13,0 C 12,9 C 88 % 1021,9 hPa 0,0 mm 0,0 km/h (0 Bft) SO 135 11,1 C 0,0 km/h (0 Bft)
11.06.2015 03:30 13,0 C 12,9 C 88 % 1021,9 hPa 0,0 mm 0,0 km/h (0 Bft) SW 225 11,1 C 0,0 km/h (0 Bft)
11.06.2015 03:35 13,0 C 12,9 C 89 % 1022,0 hPa 0,0 mm 0,0 km/h (0 Bft) S-SW 202 11,2 C 0,0 km/h (0 Bft)
11.06.2015 03:40 13,0 C 12,9 C 89 % 1022,0 hPa 0,0 mm 0,0 km/h (0 Bft) SW 225 11,2 C 0,0 km/h (0 Bft)
11.06.2015 03:45 13,0 C 12,9 C 89 % 1022,0 hPa 0,0 mm 0,0 km/h (0 Bft) S-SO 157 11,2 C 0,0 km/h (0 Bft)
11.06.2015 03:50 13,0 C 12,9 C 89 % 1022,0 hPa 0,0 mm 0,0 km/h (0 Bft) SO 135 11,2 C 0,0 km/h (0 Bft)
11.06.2015 03:55 13,0 C 12,9 C 89 % 1021,9 hPa 0,0 mm 0,0 km/h (0 Bft) S 180 11,2 C 0,0 km/h (0 Bft)
11.06.2015 04:00 13,0 C 12,9 C 89 % 1021,9 hPa 0,0 mm 0,0 km/h (0 Bft) S-SO 157 11,2 C 0,0 km/h (0 Bft)
11.06.2015 04:05 13,0 C 12,9 C 89 % 1021,9 hPa 0,0 mm 0,0 km/h (0 Bft) S-SW 202 11,2 C 0,0 km/h (0 Bft)
11.06.2015 04:10 12,9 C 12,9 C 89 % 1021,9 hPa 0,0 mm 0,0 km/h (0 Bft) S-SO 157 11,1 C 0,0 km/h (0 Bft)
11.06.2015 04:15 12,9 C 12,9 C 89 % 1021,8 hPa 0,0 mm 0,0 km/h (0 Bft) SW 225 11,1 C 0,0 km/h (0 Bft)
11.06.2015 04:20 12,9 C 12,9 C 89 % 1021,8 hPa 0,0 mm 0,0 km/h (0 Bft) S 180 11,1 C 0,0 km/h (0 Bft)
11.06.2015 04:25 12,9 C 12,9 C 89 % 1021,8 hPa 0,0 mm 0,0 km/h (0 Bft) S-SW 202 11,1 C 0,0 km/h (0 Bft)
11.06.2015 04:30 12,9 C 12,9 C 89 % 1021,8 hPa 0,0 mm 0,0 km/h (0 Bft) S-SO 157 11,1 C 0,0 km/h (0 Bft)
11.06.2015 04:35 12,9 C 12,9 C 89 % 1021,6 hPa 0,0 mm 0,0 km/h (0 Bft) S 180 11,1 C 0,0 km/h (0 Bft)
11.06.2015 04:40 12,9 C 12,9 C 89 % 1021,6 hPa 0,0 mm 0,0 km/h (0 Bft) S-SO 157 11,1 C 0,0 km/h (0 Bft)
11.06.2015 04:45 12,9 C 12,8 C 89 % 1021,6 hPa 0,0 mm 0,0 km/h (0 Bft) SO 135 11,1 C 0,0 km/h (0 Bft)
11.06.2015 04:50 12,8 C 12,7 C 89 % 1021,6 hPa 0,0 mm 0,0 km/h (0 Bft) S-SW 202 11,0 C 0,0 km/h (0 Bft)
11.06.2015 04:55 12,7 C 12,6 C 89 % 1021,4 hPa 0,0 mm 0,0 km/h (0 Bft) S 180 10,9 C 0,0 km/h (0 Bft)
11.06.2015 05:00 12,7 C 12,6 C 89 % 1021,4 hPa 0,0 mm 0,0 km/h (0 Bft) SO 135 10,9 C 0,0 km/h (0 Bft)
11.06.2015 05:05 12,7 C 12,6 C 89 % 1021,4 hPa 0,0 mm 0,0 km/h (0 Bft) SO 135 10,9 C 0,0 km/h (0 Bft)
11.06.2015 05:10 12,6 C 12,5 C 90 % 1021,4 hPa 0,0 mm 0,0 km/h (0 Bft) SO 135 11,0 C 0,0 km/h (0 Bft)
11.06.2015 05:15 12,6 C 12,5 C 90 % 1021,3 hPa 0,0 mm 0,0 km/h (0 Bft) SO 135 11,0 C 0,0 km/h (0 Bft)
11.06.2015 05:20 12,4 C 12,3 C 89 % 1021,3 hPa 0,0 mm 0,0 km/h (0 Bft) S-SW 202 10,6 C 0,0 km/h (0 Bft)
11.06.2015 05:25 12,5 C 12,4 C 89 % 1021,3 hPa 0,0 mm 0,0 km/h (0 Bft) S-SO 157 10,7 C 0,0 km/h (0 Bft)
11.06.2015 05:30 12,4 C 12,3 C 90 % 1021,3 hPa 0,0 mm 0,3 km/h (0 Bft) SW 225 10,8 C 0,0 km/h (0 Bft)
11.06.2015 05:35 12,4 C 12,3 C 90 % 1021,3 hPa 0,0 mm 0,3 km/h (0 Bft) S-SO 157 10,8 C 0,0 km/h (0 Bft)
11.06.2015 05:40 12,3 C 12,2 C 90 % 1021,3 hPa 0,0 mm 0,0 km/h (0 Bft) SO 135 10,7 C 0,0 km/h (0 Bft)
11.06.2015 05:45 12,3 C 12,2 C 90 % 1021,3 hPa 0,0 mm 0,0 km/h (0 Bft) SO 135 10,7 C 0,0 km/h (0 Bft)
11.06.2015 05:50 12,2 C 12,1 C 90 % 1021,3 hPa 0,0 mm 0,0 km/h (0 Bft) SO 135 10,6 C 0,0 km/h (0 Bft)
11.06.2015 05:55 12,2 C 12,1 C 90 % 1021,3 hPa 0,0 mm 0,0 km/h (0 Bft) S 180 10,6 C 0,0 km/h (0 Bft)
11.06.2015 06:00 12,2 C 12,1 C 90 % 1021,3 hPa 0,0 mm 0,0 km/h (0 Bft) S-SO 157 10,6 C 0,0 km/h (0 Bft)
11.06.2015 06:05 12,2 C 12,1 C 90 % 1021,3 hPa 0,0 mm 0,0 km/h (0 Bft) S-SO 157 10,6 C 0,0 km/h (0 Bft)
11.06.2015 06:10 12,3 C 12,2 C 90 % 1021,3 hPa 0,0 mm 0,0 km/h (0 Bft) S-SO 157 10,7 C 0,0 km/h (0 Bft)
11.06.2015 06:15 12,3 C 12,3 C 88 % 1021,2 hPa 0,0 mm 0,0 km/h (0 Bft) S-SO 157 10,4 C 0,0 km/h (0 Bft)
11.06.2015 06:20 12,3 C 12,4 C 88 % 1021,2 hPa 0,0 mm 0,0 km/h (0 Bft) SW 225 10,4 C 0,0 km/h (0 Bft)
11.06.2015 06:25 12,4 C 12,5 C 88 % 1021,2 hPa 0,0 mm 0,0 km/h (0 Bft) S-SW 202 10,5 C 0,0 km/h (0 Bft)
11.06.2015 06:30 12,4 C 12,6 C 88 % 1021,2 hPa 0,0 mm 0,0 km/h (0 Bft) SW 225 10,5 C 0,0 km/h (0 Bft)
11.06.2015 06:35 12,5 C 12,6 C 88 % 1021,2 hPa 0,0 mm 0,3 km/h (0 Bft) W-SW 247 10,6 C 0,0 km/h (0 Bft)
11.06.2015 06:40 12,6 C 12,8 C 88 % 1021,2 hPa 0,0 mm 0,3 km/h (0 Bft) S-SW 202 10,7 C 0,0 km/h (0 Bft)
11.06.2015 06:45 12,6 C 12,9 C 88 % 1021,2 hPa 0,0 mm 0,0 km/h (0 Bft) W-SW 247 10,7 C 0,0 km/h (0 Bft)
11.06.2015 06:50 12,7 C 13,0 C 88 % 1021,2 hPa 0,0 mm 0,3 km/h (0 Bft) SO 135 10,8 C 5,4 km/h (1 Bft)
11.06.2015 06:55 12,6 C 13,1 C 88 % 1021,1 hPa 0,0 mm 1,3 km/h (1 Bft) SW 225 10,7 C 5,4 km/h (1 Bft)
11.06.2015 07:00 12,7 C 13,1 C 88 % 1021,1 hPa 0,0 mm 2,3 km/h (1 Bft) SW 225 10,8 C 6,5 km/h (2 Bft)
11.06.2015 07:05 12,6 C 13,1 C 88 % 1021,1 hPa 0,0 mm 2,1 km/h (1 Bft) S-SO 157 10,7 C 3,1 km/h (1 Bft)
11.06.2015 07:10 12,7 C 13,1 C 88 % 1021,1 hPa 0,0 mm 0,8 km/h (0 Bft) S-SW 202 10,8 C 0,0 km/h (0 Bft)
11.06.2015 07:15 12,7 C 13,1 C 88 % 1021,4 hPa 0,0 mm 0,5 km/h (0 Bft) W 270 10,8 C 0,0 km/h (0 Bft)
11.06.2015 07:20 12,9 C 13,4 C 88 % 1021,4 hPa 0,0 mm 0,0 km/h (0 Bft) W-SW 247 11,0 C 0,0 km/h (0 Bft)
11.06.2015 07:25 13,0 C 13,8 C 87 % 1021,4 hPa 0,0 mm 0,0 km/h (0 Bft) S 180 10,9 C 0,0 km/h (0 Bft)
11.06.2015 07:30 13,3 C 14,6 C 87 % 1021,4 hPa 0,0 mm 0,3 km/h (0 Bft) NO 45 11,2 C 0,0 km/h (0 Bft)
11.06.2015 07:35 13,6 C 14,9 C 87 % 1021,3 hPa 0,0 mm 0,3 km/h (0 Bft) W-NW 292 11,5 C 0,0 km/h (0 Bft)
11.06.2015 07:40 13,8 C 15,2 C 87 % 1021,3 hPa 0,0 mm 0,0 km/h (0 Bft) S-SW 202 11,7 C 0,0 km/h (0 Bft)
11.06.2015 07:45 13,9 C 15,3 C 87 % 1021,3 hPa 0,0 mm 0,0 km/h (0 Bft) W 270 11,8 C 0,0 km/h (0 Bft)
11.06.2015 07:50 14,0 C 15,4 C 87 % 1021,3 hPa 0,0 mm 0,0 km/h (0 Bft) NW 315 11,9 C 0,0 km/h (0 Bft)
11.06.2015 07:55 14,1 C 15,4 C 87 % 1021,4 hPa 0,0 mm 0,0 km/h (0 Bft) W-NW 292 12,0 C 0,0 km/h (0 Bft)
11.06.2015 08:00 14,2 C 15,4 C 87 % 1021,4 hPa 0,0 mm 0,0 km/h (0 Bft) NW 315 12,1 C 0,0 km/h (0 Bft)
11.06.2015 08:05 14,3 C 15,4 C 87 % 1021,4 hPa 0,0 mm 0,0 km/h (0 Bft) W-NW 292 12,2 C 0,0 km/h (0 Bft)
11.06.2015 08:10 14,5 C 15,5 C 86 % 1021,4 hPa 0,0 mm 0,0 km/h (0 Bft) W-SW 247 12,2 C 0,0 km/h (0 Bft)
11.06.2015 08:15 14,6 C 15,6 C 86 % 1021,4 hPa 0,0 mm 0,0 km/h (0 Bft) NW 315 12,3 C 0,0 km/h (0 Bft)
11.06.2015 08:20 14,7 C 15,8 C 86 % 1021,4 hPa 0,0 mm 0,0 km/h (0 Bft) SW 225 12,4 C 0,0 km/h (0 Bft)
11.06.2015 08:25 14,7 C 15,8 C 86 % 1021,4 hPa 0,0 mm 0,0 km/h (0 Bft) W 270 12,4 C 0,0 km/h (0 Bft)
11.06.2015 08:30 14,7 C 15,9 C 86 % 1021,4 hPa 0,0 mm 0,0 km/h (0 Bft) W-NW 292 12,4 C 0,0 km/h (0 Bft)
11.06.2015 08:35 14,7 C 16,0 C 86 % 1021,5 hPa 0,0 mm 0,0 km/h (0 Bft) O-SO 112 12,4 C 0,0 km/h (0 Bft)
11.06.2015 08:40 14,9 C 16,2 C 86 % 1021,5 hPa 0,0 mm 0,0 km/h (0 Bft) W-SW 247 12,6 C 0,0 km/h (0 Bft)
11.06.2015 08:45 15,0 C 16,3 C 85 % 1021,5 hPa 0,0 mm 0,0 km/h (0 Bft) W-SW 247 12,5 C 0,0 km/h (0 Bft)
11.06.2015 08:50 15,0 C 16,4 C 85 % 1021,5 hPa 0,0 mm 0,0 km/h (0 Bft) W 270 12,5 C 0,0 km/h (0 Bft)
11.06.2015 08:55 15,1 C 16,6 C 85 % 1021,7 hPa 0,0 mm 0,0 km/h (0 Bft) SW 225 12,6 C 0,0 km/h (0 Bft)
11.06.2015 09:00 15,2 C 16,8 C 84 % 1021,7 hPa 0,0 mm 0,0 km/h (0 Bft) W-NW 292 12,5 C 0,0 km/h (0 Bft)
11.06.2015 09:05 15,4 C 17,1 C 84 % 1021,7 hPa 0,0 mm 0,0 km/h (0 Bft) N-NW 337 12,7 C 0,0 km/h (0 Bft)
11.06.2015 09:10 15,5 C 17,4 C 84 % 1021,7 hPa 0,0 mm 0,0 km/h (0 Bft) W-SW 247 12,8 C 0,0 km/h (0 Bft)
11.06.2015 09:15 15,4 C 17,4 C 83 % 1021,8 hPa 0,0 mm 0,0 km/h (0 Bft) SW 225 12,5 C 0,0 km/h (0 Bft)
11.06.2015 09:20 15,5 C 17,6 C 83 % 1021,8 hPa 0,0 mm 0,0 km/h (0 Bft) NW 315 12,6 C 0,0 km/h (0 Bft)
11.06.2015 09:25 15,7 C 17,8 C 83 % 1021,8 hPa 0,0 mm 0,0 km/h (0 Bft) N-NW 337 12,8 C 0,0 km/h (0 Bft)
11.06.2015 09:30 15,9 C 17,9 C 82 % 1021,8 hPa 0,0 mm 0,0 km/h (0 Bft) W-NW 292 12,8 C 0,0 km/h (0 Bft)
11.06.2015 09:35 15,9 C 18,0 C 82 % 1021,6 hPa 0,0 mm 0,0 km/h (0 Bft) N-NW 337 12,8 C 0,0 km/h (0 Bft)
11.06.2015 09:40 15,9 C 18,1 C 81 % 1021,6 hPa 0,0 mm 0,0 km/h (0 Bft) O-NO 67 12,6 C 0,0 km/h (0 Bft)
11.06.2015 09:45 15,9 C 18,2 C 81 % 1021,6 hPa 0,0 mm 0,0 km/h (0 Bft) N 360 12,6 C 0,0 km/h (0 Bft)
11.06.2015 09:50 15,9 C 18,4 C 81 % 1021,6 hPa 0,0 mm 0,0 km/h (0 Bft) N-NO 22 12,6 C 0,0 km/h (0 Bft)
11.06.2015 09:55 15,9 C 18,5 C 80 % 1021,6 hPa 0,0 mm 0,0 km/h (0 Bft) N-NO 22 12,5 C 0,0 km/h (0 Bft)
11.06.2015 10:00 15,9 C 18,6 C 79 % 1021,6 hPa 0,0 mm 0,8 km/h (0 Bft) O-NO 67 12,3 C 6,7 km/h (2 Bft)
11.06.2015 10:05 15,9 C 18,8 C 79 % 1021,6 hPa 0,0 mm 1,6 km/h (1 Bft) O-SO 112 12,3 C 4,7 km/h (1 Bft)
11.06.2015 10:10 15,9 C 18,9 C 78 % 1021,6 hPa 0,0 mm 1,3 km/h (1 Bft) SW 225 12,1 C 0,0 km/h (0 Bft)
11.06.2015 10:15 16,0 C 19,2 C 78 % 1021,7 hPa 0,0 mm 1,3 km/h (1 Bft) W 270 12,2 C 0,0 km/h (0 Bft)
11.06.2015 10:20 16,0 C 19,1 C 77 % 1021,7 hPa 0,0 mm 1,0 km/h (0 Bft) O-NO 67 12,0 C 7,0 km/h (2 Bft)
11.06.2015 10:25 16,1 C 19,1 C 77 % 1021,7 hPa 0,0 mm 1,0 km/h (0 Bft) O-SO 112 12,1 C 0,0 km/h (0 Bft)
11.06.2015 10:30 16,2 C 19,3 C 77 % 1021,7 hPa 0,0 mm 0,3 km/h (0 Bft) O-NO 67 12,2 C 0,0 km/h (0 Bft)
11.06.2015 10:36 16,2 C 19,5 C 77 % 1021,7 hPa 0,0 mm 0,5 km/h (0 Bft) W-SW 247 12,2 C 0,0 km/h (0 Bft)
11.06.2015 10:40 16,4 C 19,9 C 77 % 1021,7 hPa 0,0 mm 0,8 km/h (0 Bft) O-NO 67 12,4 C 4,1 km/h (1 Bft)
11.06.2015 10:45 16,5 C 19,9 C 77 % 1021,7 hPa 0,0 mm 1,3 km/h (1 Bft) NO 45 12,5 C 8,8 km/h (2 Bft)
11.06.2015 10:50 16,7 C 19,9 C 76 % 1021,7 hPa 0,0 mm 2,6 km/h (1 Bft) O-NO 67 12,4 C 3,1 km/h (1 Bft)
11.06.2015 10:55 16,7 C 20,2 C 76 % 1021,7 hPa 0,0 mm 2,6 km/h (1 Bft) NO 45 12,4 C 2,6 km/h (1 Bft)
11.06.2015 11:00 17,1 C 20,9 C 75 % 1021,7 hPa 0,0 mm 2,8 km/h (1 Bft) NO 45 12,6 C 6,7 km/h (2 Bft)
11.06.2015 11:05 17,0 C 21,2 C 75 % 1021,7 hPa 0,0 mm 2,3 km/h (1 Bft) SO 135 12,5 C 3,9 km/h (1 Bft)
11.06.2015 11:10 17,3 C 22,3 C 75 % 1021,7 hPa 0,0 mm 2,1 km/h (1 Bft) NO 45 12,8 C 3,1 km/h (1 Bft)
11.06.2015 11:15 17,5 C 22,4 C 74 % 1021,6 hPa 0,0 mm 2,8 km/h (1 Bft) O-NO 67 12,8 C 3,9 km/h (1 Bft)
11.06.2015 11:20 17,6 C 22,6 C 75 % 1021,6 hPa 0,0 mm 2,8 km/h (1 Bft) NO 45 13,1 C 2,6 km/h (1 Bft)
11.06.2015 11:25 17,6 C 22,8 C 74 % 1021,6 hPa 0,0 mm 2,3 km/h (1 Bft) O-NO 67 12,9 C 5,2 km/h (1 Bft)
11.06.2015 11:30 18,0 C 23,1 C 74 % 1021,6 hPa 0,0 mm 3,4 km/h (1 Bft) O 90 13,3 C 5,4 km/h (1 Bft)
11.06.2015 11:35 18,5 C 24,1 C 73 % 1021,5 hPa 0,0 mm 3,4 km/h (1 Bft) NO 45 13,6 C 0,0 km/h (0 Bft)
11.06.2015 11:40 19,0 C 25,2 C 73 % 1021,5 hPa 0,0 mm 4,1 km/h (1 Bft) N-NO 22 14,0 C 12,9 km/h (3 Bft)
11.06.2015 11:45 18,7 C 24,6 C 73 % 1021,5 hPa 0,0 mm 4,9 km/h (1 Bft) N-NO 22 13,8 C 4,1 km/h (1 Bft)
11.06.2015 11:50 18,6 C 23,7 C 72 % 1021,5 hPa 0,0 mm 5,4 km/h (1 Bft) NO 45 13,4 C 6,0 km/h (2 Bft)
11.06.2015 11:55 18,8 C 24,1 C 72 % 1021,6 hPa 0,0 mm 3,9 km/h (1 Bft) SO 135 13,6 C 2,8 km/h (1 Bft)
11.06.2015 12:00 19,6 C 25,2 C 73 % 1021,6 hPa 0,0 mm 2,6 km/h (1 Bft) O-NO 67 14,6 C 0,0 km/h (0 Bft)
11.06.2015 12:05 19,8 C 25,4 C 72 % 1021,6 hPa 0,0 mm 2,6 km/h (1 Bft) O-NO 67 14,6 C 8,3 km/h (2 Bft)
11.06.2015 12:10 19,8 C 25,5 C 71 % 1021,6 hPa 0,0 mm 3,6 km/h (1 Bft) SO 135 14,4 C 6,0 km/h (2 Bft)
11.06.2015 12:15 20,0 C 25,7 C 71 % 1021,8 hPa 0,0 mm 4,4 km/h (1 Bft) N-NO 22 14,6 C 11,7 km/h (2 Bft)
11.06.2015 12:20 20,2 C 25,4 C 70 % 1021,8 hPa 0,0 mm 6,0 km/h (2 Bft) N-NO 22 14,5 C 14,0 km/h (3 Bft)
11.06.2015 12:25 20,1 C 25,2 C 69 % 1021,8 hPa 0,0 mm 6,5 km/h (2 Bft) W-NW 292 14,2 C 5,2 km/h (1 Bft)
11.06.2015 12:30 20,4 C 25,3 C 70 % 1021,8 hPa 0,0 mm 4,7 km/h (1 Bft) O-NO 67 14,7 C 3,4 km/h (1 Bft)
11.06.2015 12:35 20,6 C 25,9 C 68 % 1021,8 hPa 0,0 mm 4,7 km/h (1 Bft) O-NO 67 14,5 C 7,0 km/h (2 Bft)
11.06.2015 12:40 20,6 C 26,6 C 69 % 1021,8 hPa 0,0 mm 3,6 km/h (1 Bft) O-SO 112 14,7 C 6,0 km/h (2 Bft)
11.06.2015 12:45 20,8 C 26,8 C 68 % 1021,8 hPa 0,0 mm 4,4 km/h (1 Bft) S-SO 157 14,7 C 8,0 km/h (2 Bft)
11.06.2015 12:50 21,1 C 26,4 C 69 % 1021,8 hPa 0,0 mm 6,0 km/h (2 Bft) N 360 15,2 C 14,5 km/h (3 Bft)
11.06.2015 12:55 21,0 C 25,8 C 67 % 1021,7 hPa 0,0 mm 6,0 km/h (2 Bft) N-NO 22 14,6 C 8,0 km/h (2 Bft)
11.06.2015 13:00 20,8 C 24,7 C 68 % 1021,7 hPa 0,0 mm 6,2 km/h (2 Bft) N-NO 22 14,7 C 17,1 km/h (3 Bft)
11.06.2015 13:05 20,8 C 24,6 C 69 % 1021,7 hPa 0,0 mm 6,2 km/h (2 Bft) N 360 14,9 C 9,1 km/h (2 Bft)
11.06.2015 13:10 20,6 C 24,0 C 68 % 1021,7 hPa 0,0 mm 6,7 km/h (2 Bft) NO 45 14,5 C 13,7 km/h (3 Bft)
11.06.2015 13:15 20,7 C 24,5 C 68 % 1021,6 hPa 0,0 mm 7,5 km/h (2 Bft) O-SO 112 14,6 C 9,6 km/h (2 Bft)
11.06.2015 13:20 19,8 C 23,1 C 69 % 1021,6 hPa 0,0 mm 7,3 km/h (2 Bft) O 90 13,9 C 3,6 km/h (1 Bft)
11.06.2015 13:25 20,2 C 23,2 C 69 % 1021,6 hPa 0,0 mm 6,2 km/h (2 Bft) O-NO 67 14,3 C 6,7 km/h (2 Bft)
11.06.2015 13:30 20,8 C 24,7 C 69 % 1021,6 hPa 0,0 mm 4,9 km/h (1 Bft) O-NO 67 14,9 C 0,0 km/h (0 Bft)
11.06.2015 13:35 21,1 C 26,0 C 68 % 1021,3 hPa 0,0 mm 5,4 km/h (1 Bft) NO 45 15,0 C 16,6 km/h (3 Bft)
11.06.2015 13:40 20,5 C 24,9 C 68 % 1021,3 hPa 0,0 mm 5,7 km/h (1 Bft) O-NO 67 14,4 C 7,3 km/h (2 Bft)
11.06.2015 13:45 20,6 C 24,9 C 68 % 1021,3 hPa 0,0 mm 7,5 km/h (2 Bft) O 90 14,5 C 5,7 km/h (1 Bft)
11.06.2015 13:50 20,7 C 25,2 C 68 % 1021,3 hPa 0,0 mm 8,3 km/h (2 Bft) NO 45 14,6 C 18,4 km/h (3 Bft)
11.06.2015 13:55 20,9 C 25,3 C 68 % 1021,4 hPa 0,0 mm 8,3 km/h (2 Bft) O-NO 67 14,8 C 9,6 km/h (2 Bft)
11.06.2015 14:00 21,1 C 25,6 C 67 % 1021,4 hPa 0,0 mm 8,3 km/h (2 Bft) N-NW 337 14,7 C 3,1 km/h (1 Bft)
11.06.2015 14:05 21,3 C 26,2 C 66 % 1021,4 hPa 0,0 mm 6,7 km/h (2 Bft) N-NW 337 14,7 C 5,4 km/h (1 Bft)
11.06.2015 14:10 21,2 C 26,2 C 67 % 1021,4 hPa 0,0 mm 4,4 km/h (1 Bft) N-NW 337 14,8 C 6,0 km/h (2 Bft)
11.06.2015 14:15 21,0 C 25,3 C 66 % 1021,1 hPa 0,0 mm 5,4 km/h (1 Bft) NO 45 14,4 C 7,0 km/h (2 Bft)
11.06.2015 14:20 20,9 C 24,8 C 68 % 1021,1 hPa 0,0 mm 6,7 km/h (2 Bft) O 90 14,8 C 12,9 km/h (3 Bft)
11.06.2015 14:25 20,9 C 25,0 C 67 % 1021,1 hPa 0,0 mm 5,7 km/h (1 Bft) N 360 14,5 C 3,1 km/h (1 Bft)
11.06.2015 14:30 21,0 C 25,3 C 66 % 1021,1 hPa 0,0 mm 4,7 km/h (1 Bft) O-NO 67 14,4 C 10,6 km/h (2 Bft)
11.06.2015 14:35 20,7 C 24,6 C 66 % 1021,0 hPa 0,0 mm 5,2 km/h (1 Bft) O-SO 112 14,1 C 5,2 km/h (1 Bft)
11.06.2015 14:40 20,7 C 24,1 C 67 % 1021,0 hPa 0,0 mm 5,2 km/h (1 Bft) SO 135 14,3 C 0,0 km/h (0 Bft)
11.06.2015 14:45 20,9 C 24,7 C 66 % 1021,0 hPa 0,0 mm 4,1 km/h (1 Bft) O-SO 112 14,3 C 4,7 km/h (1 Bft)
11.06.2015 14:50 20,9 C 24,8 C 66 % 1021,0 hPa 0,0 mm 4,7 km/h (1 Bft) N-NO 22 14,3 C 13,7 km/h (3 Bft)
11.06.2015 14:55 20,8 C 24,3 C 67 % 1020,7 hPa 0,0 mm 6,5 km/h (2 Bft) N-NO 22 14,4 C 8,8 km/h (2 Bft)
11.06.2015 15:00 20,7 C 23,7 C 67 % 1020,7 hPa 0,0 mm 6,0 km/h (2 Bft) O-NO 67 14,3 C 3,1 km/h (1 Bft)
11.06.2015 15:05 20,6 C 23,5 C 67 % 1020,7 hPa 0,0 mm 4,9 km/h (1 Bft) NO 45 14,3 C 15,0 km/h (3 Bft)
11.06.2015 15:10 20,5 C 23,2 C 67 % 1020,7 hPa 0,0 mm 4,7 km/h (1 Bft) SW 225 14,2 C 0,0 km/h (0 Bft)
11.06.2015 15:15 20,5 C 23,4 C 67 % 1020,6 hPa 0,0 mm 4,7 km/h (1 Bft) O-NO 67 14,2 C 8,0 km/h (2 Bft)
11.06.2015 15:20 20,6 C 23,8 C 67 % 1020,6 hPa 0,0 mm 5,4 km/h (1 Bft) SO 135 14,3 C 16,6 km/h (3 Bft)
11.06.2015 15:25 20,5 C 23,8 C 68 % 1020,6 hPa 0,0 mm 6,7 km/h (2 Bft) O 90 14,4 C 6,2 km/h (2 Bft)
11.06.2015 15:30 20,7 C 24,4 C 68 % 1020,6 hPa 0,0 mm 8,3 km/h (2 Bft) O-NO 67 14,6 C 9,3 km/h (2 Bft)
11.06.2015 15:35 20,5 C 24,4 C 68 % 1020,4 hPa 0,0 mm 7,0 km/h (2 Bft) SO 135 14,4 C 4,9 km/h (1 Bft)
11.06.2015 15:40 20,4 C 23,8 C 68 % 1020,4 hPa 0,0 mm 5,2 km/h (1 Bft) O 90 14,3 C 8,8 km/h (2 Bft)
11.06.2015 15:45 20,1 C 23,4 C 68 % 1020,4 hPa 0,0 mm 5,2 km/h (1 Bft) O-SO 112 14,0 C 11,4 km/h (2 Bft)
11.06.2015 15:50 20,0 C 23,0 C 69 % 1020,4 hPa 0,0 mm 6,0 km/h (2 Bft) O-NO 67 14,1 C 7,3 km/h (2 Bft)
11.06.2015 15:55 20,0 C 22,7 C 69 % 1020,2 hPa 0,0 mm 6,7 km/h (2 Bft) O-SO 112 14,1 C 7,8 km/h (2 Bft)
11.06.2015 16:00 19,9 C 22,4 C 69 % 1020,2 hPa 0,0 mm 6,2 km/h (2 Bft) O-NO 67 14,0 C 4,1 km/h (1 Bft)
11.06.2015 16:05 19,9 C 22,3 C 69 % 1020,2 hPa 0,0 mm 5,4 km/h (1 Bft) O-NO 67 14,0 C 7,8 km/h (2 Bft)
11.06.2015 16:10 20,0 C 22,5 C 69 % 1020,2 hPa 0,0 mm 5,2 km/h (1 Bft) O-NO 67 14,1 C 7,0 km/h (2 Bft)
11.06.2015 16:15 20,2 C 23,7 C 70 % 1019,9 hPa 0,0 mm 5,2 km/h (1 Bft) N-NO 22 14,5 C 7,8 km/h (2 Bft)
11.06.2015 16:20 20,4 C 25,3 C 69 % 1019,9 hPa 0,0 mm 6,0 km/h (2 Bft) O-SO 112 14,5 C 6,0 km/h (2 Bft)
11.06.2015 16:25 20,3 C 25,5 C 68 % 1019,9 hPa 0,0 mm 5,7 km/h (1 Bft) O-SO 112 14,2 C 5,2 km/h (1 Bft)
11.06.2015 16:30 20,0 C 25,2 C 69 % 1019,9 hPa 0,0 mm 5,4 km/h (1 Bft) O-SO 112 14,1 C 3,6 km/h (1 Bft)
11.06.2015 16:35 20,1 C 25,5 C 68 % 1019,6 hPa 0,0 mm 4,9 km/h (1 Bft) O-NO 67 14,0 C 5,4 km/h (1 Bft)
11.06.2015 16:40 20,2 C 25,5 C 68 % 1019,6 hPa 0,0 mm 4,9 km/h (1 Bft) N-NO 22 14,1 C 6,7 km/h (2 Bft)
11.06.2015 16:45 20,2 C 25,8 C 67 % 1019,6 hPa 0,0 mm 4,7 km/h (1 Bft) N 360 13,9 C 7,3 km/h (2 Bft)
11.06.2015 16:50 20,2 C 25,7 C 67 % 1019,6 hPa 0,0 mm 4,7 km/h (1 Bft) O-NO 67 13,9 C 4,4 km/h (1 Bft)
11.06.2015 16:55 20,1 C 24,2 C 67 % 1019,4 hPa 0,0 mm 4,7 km/h (1 Bft) O 90 13,8 C 6,2 km/h (2 Bft)
11.06.2015 17:00 20,0 C 22,8 C 68 % 1019,4 hPa 0,0 mm 4,1 km/h (1 Bft) O-SO 112 13,9 C 3,6 km/h (1 Bft)
11.06.2015 17:05 19,9 C 22,2 C 68 % 1019,4 hPa 0,0 mm 3,6 km/h (1 Bft) S-SO 157 13,8 C 0,0 km/h (0 Bft)
11.06.2015 17:10 19,9 C 21,8 C 68 % 1019,4 hPa 0,0 mm 3,4 km/h (1 Bft) O-NO 67 13,8 C 10,9 km/h (2 Bft)
11.06.2015 17:15 19,9 C 21,5 C 67 % 1019,2 hPa 0,0 mm 4,7 km/h (1 Bft) O 90 13,6 C 7,3 km/h (2 Bft)
11.06.2015 17:20 20,1 C 21,7 C 67 % 1019,2 hPa 0,0 mm 7,3 km/h (2 Bft) O-SO 112 13,8 C 6,7 km/h (2 Bft)
11.06.2015 17:25 20,2 C 21,9 C 67 % 1019,2 hPa 0,0 mm 6,7 km/h (2 Bft) NO 45 13,9 C 5,4 km/h (1 Bft)
11.06.2015 17:30 20,4 C 22,0 C 67 % 1019,2 hPa 0,0 mm 6,7 km/h (2 Bft) N-NO 22 14,1 C 8,0 km/h (2 Bft)
11.06.2015 17:35 20,6 C 22,0 C 66 % 1019,1 hPa 0,0 mm 7,0 km/h (2 Bft) NO 45 14,0 C 6,0 km/h (2 Bft)
11.06.2015 17:40 20,6 C 22,1 C 66 % 1019,1 hPa 0,0 mm 6,2 km/h (2 Bft) N-NW 337 14,0 C 15,8 km/h (3 Bft)
11.06.2015 17:45 20,6 C 22,0 C 66 % 1019,1 hPa 0,0 mm 7,0 km/h (2 Bft) NO 45 14,0 C 4,9 km/h (1 Bft)
11.06.2015 17:50 20,6 C 22,1 C 65 % 1019,1 hPa 0,0 mm 7,8 km/h (2 Bft) NO 45 13,8 C 9,3 km/h (2 Bft)
11.06.2015 17:55 20,6 C 22,0 C 66 % 1019,0 hPa 0,0 mm 6,7 km/h (2 Bft) N-NO 22 14,0 C 5,4 km/h (1 Bft)
11.06.2015 18:00 20,7 C 22,1 C 66 % 1019,0 hPa 0,0 mm 6,5 km/h (2 Bft) NO 45 14,1 C 8,3 km/h (2 Bft)
11.06.2015 18:05 20,8 C 22,3 C 66 % 1019,0 hPa 0,0 mm 5,4 km/h (1 Bft) O-NO 67 14,2 C 9,3 km/h (2 Bft)
11.06.2015 18:10 20,9 C 22,3 C 66 % 1019,0 hPa 0,0 mm 7,0 km/h (2 Bft) N-NW 337 14,3 C 9,6 km/h (2 Bft)
11.06.2015 18:15 20,9 C 22,4 C 65 % 1018,7 hPa 0,0 mm 7,5 km/h (2 Bft) NO 45 14,1 C 6,2 km/h (2 Bft)
11.06.2015 18:20 21,1 C 22,8 C 65 % 1018,7 hPa 0,0 mm 4,9 km/h (1 Bft) N-NO 22 14,3 C 7,3 km/h (2 Bft)
11.06.2015 18:25 21,0 C 22,7 C 65 % 1018,7 hPa 0,0 mm 6,0 km/h (2 Bft) N-NO 22 14,2 C 15,8 km/h (3 Bft)
11.06.2015 18:30 21,0 C 23,1 C 66 % 1018,7 hPa 0,0 mm 6,0 km/h (2 Bft) O-NO 67 14,4 C 7,0 km/h (2 Bft)
11.06.2015 18:35 21,1 C 23,3 C 66 % 1018,7 hPa 0,0 mm 5,2 km/h (1 Bft) O-NO 67 14,5 C 12,9 km/h (3 Bft)
11.06.2015 18:40 20,9 C 23,0 C 66 % 1018,7 hPa 0,0 mm 4,9 km/h (1 Bft) O-SO 112 14,3 C 4,9 km/h (1 Bft)
11.06.2015 18:45 20,9 C 23,0 C 66 % 1018,7 hPa 0,0 mm 5,7 km/h (1 Bft) O-NO 67 14,3 C 4,4 km/h (1 Bft)
11.06.2015 18:50 20,9 C 23,1 C 67 % 1018,7 hPa 0,0 mm 6,0 km/h (2 Bft) O 90 14,5 C 11,4 km/h (2 Bft)
11.06.2015 18:55 20,7 C 22,6 C 67 % 1018,8 hPa 0,0 mm 6,0 km/h (2 Bft) NO 45 14,3 C 7,8 km/h (2 Bft)
11.06.2015 19:00 20,5 C 21,8 C 67 % 1018,8 hPa 0,0 mm 4,7 km/h (1 Bft) W-NW 292 14,2 C 0,0 km/h (0 Bft)
11.06.2015 19:05 20,5 C 21,6 C 68 % 1018,8 hPa 0,0 mm 3,6 km/h (1 Bft) SO 135 14,4 C 4,1 km/h (1 Bft)
11.06.2015 19:10 20,2 C 21,1 C 68 % 1018,8 hPa 0,0 mm 1,0 km/h (0 Bft) S 180 14,1 C 0,0 km/h (0 Bft)
11.06.2015 19:15 20,0 C 20,8 C 68 % 1018,8 hPa 0,0 mm 1,0 km/h (0 Bft) S-SO 157 13,9 C 5,2 km/h (1 Bft)
11.06.2015 19:20 19,8 C 20,4 C 69 % 1018,8 hPa 0,0 mm 0,5 km/h (0 Bft) S-SO 157 13,9 C 0,0 km/h (0 Bft)
11.06.2015 19:25 19,6 C 20,2 C 70 % 1018,8 hPa 0,0 mm 0,8 km/h (0 Bft) SO 135 14,0 C 0,0 km/h (0 Bft)
11.06.2015 19:30 19,4 C 20,0 C 71 % 1018,8 hPa 0,0 mm 0,8 km/h (0 Bft) O-NO 67 14,0 C 0,0 km/h (0 Bft)
11.06.2015 19:35 19,4 C 19,6 C 71 % 1018,7 hPa 0,0 mm 0,5 km/h (0 Bft) W 270 14,0 C 0,0 km/h (0 Bft)
11.06.2015 19:40 19,2 C 19,4 C 71 % 1018,7 hPa 0,0 mm 0,3 km/h (0 Bft) SO 135 13,8 C 0,0 km/h (0 Bft)
11.06.2015 19:45 19,1 C 19,2 C 71 % 1018,7 hPa 0,0 mm 0,3 km/h (0 Bft) O 90 13,7 C 0,0 km/h (0 Bft)
11.06.2015 19:50 19,0 C 19,1 C 72 % 1018,7 hPa 0,0 mm 0,5 km/h (0 Bft) O-SO 112 13,8 C 0,0 km/h (0 Bft)
11.06.2015 19:55 19,0 C 19,1 C 72 % 1018,5 hPa 0,0 mm 1,0 km/h (0 Bft) NO 45 13,8 C 7,0 km/h (2 Bft)
11.06.2015 20:00 18,9 C 19,1 C 73 % 1018,5 hPa 0,0 mm 1,6 km/h (1 Bft) O 90 13,9 C 4,4 km/h (1 Bft)
11.06.2015 20:05 18,9 C 19,2 C 73 % 1018,5 hPa 0,0 mm 1,8 km/h (1 Bft) N-NO 22 13,9 C 3,4 km/h (1 Bft)
11.06.2015 20:10 18,9 C 19,2 C 73 % 1018,5 hPa 0,0 mm 1,8 km/h (1 Bft) O-SO 112 13,9 C 2,6 km/h (1 Bft)
11.06.2015 20:15 18,8 C 19,2 C 74 % 1018,5 hPa 0,0 mm 2,1 km/h (1 Bft) O-SO 112 14,1 C 4,7 km/h (1 Bft)
11.06.2015 20:20 18,6 C 18,9 C 74 % 1018,5 hPa 0,0 mm 1,8 km/h (1 Bft) O 90 13,9 C 0,0 km/h (0 Bft)
11.06.2015 20:25 18,5 C 18,8 C 75 % 1018,5 hPa 0,0 mm 0,8 km/h (0 Bft) O-NO 67 14,0 C 0,0 km/h (0 Bft)
11.06.2015 20:30 18,6 C 19,6 C 75 % 1018,5 hPa 0,0 mm 0,0 km/h (0 Bft) S-SO 157 14,1 C 0,0 km/h (0 Bft)
11.06.2015 20:35 18,5 C 20,2 C 75 % 1018,7 hPa 0,0 mm 0,0 km/h (0 Bft) O-NO 67 14,0 C 0,0 km/h (0 Bft)
11.06.2015 20:40 18,5 C 20,5 C 76 % 1018,7 hPa 0,0 mm 0,0 km/h (0 Bft) O 90 14,2 C 0,0 km/h (0 Bft)
11.06.2015 20:45 18,4 C 20,6 C 76 % 1018,7 hPa 0,0 mm 0,0 km/h (0 Bft) O-SO 112 14,1 C 0,0 km/h (0 Bft)
11.06.2015 20:50 18,3 C 20,0 C 76 % 1018,7 hPa 0,0 mm 0,0 km/h (0 Bft) SO 135 14,0 C 0,0 km/h (0 Bft)
11.06.2015 20:55 18,2 C 19,5 C 76 % 1018,4 hPa 0,0 mm 0,0 km/h (0 Bft) S-SO 157 13,9 C 0,0 km/h (0 Bft)
11.06.2015 21:00 17,9 C 18,9 C 78 % 1018,4 hPa 0,0 mm 0,0 km/h (0 Bft) SO 135 14,0 C 0,0 km/h (0 Bft)
11.06.2015 21:05 17,8 C 18,5 C 78 % 1018,4 hPa 0,0 mm 0,0 km/h (0 Bft) S 180 13,9 C 0,0 km/h (0 Bft)
11.06.2015 21:10 17,6 C 18,0 C 79 % 1018,4 hPa 0,0 mm 0,0 km/h (0 Bft) SO 135 13,9 C 0,0 km/h (0 Bft)
11.06.2015 21:15 17,5 C 17,8 C 79 % 1018,3 hPa 0,0 mm 0,0 km/h (0 Bft) S-SO 157 13,8 C 0,0 km/h (0 Bft)
11.06.2015 21:20 17,3 C 17,5 C 80 % 1018,3 hPa 0,0 mm 0,5 km/h (0 Bft) S-SO 157 13,8 C 2,6 km/h (1 Bft)
11.06.2015 21:25 17,2 C 17,3 C 80 % 1018,3 hPa 0,0 mm 1,0 km/h (0 Bft) S 180 13,7 C 3,4 km/h (1 Bft)
11.06.2015 21:30 16,9 C 17,1 C 80 % 1018,3 hPa 0,0 mm 1,6 km/h (1 Bft) S 180 13,4 C 0,0 km/h (0 Bft)
11.06.2015 21:35 16,9 C 17,0 C 80 % 1018,2 hPa 0,0 mm 2,8 km/h (1 Bft) S-SW 202 13,4 C 4,7 km/h (1 Bft)
11.06.2015 21:40 16,9 C 16,9 C 81 % 1018,2 hPa 0,0 mm 2,1 km/h (1 Bft) S 180 13,6 C 0,0 km/h (0 Bft)
11.06.2015 21:45 16,8 C 16,8 C 82 % 1018,2 hPa 0,0 mm 1,0 km/h (0 Bft) S 180 13,7 C 0,0 km/h (0 Bft)
11.06.2015 21:50 16,6 C 16,6 C 82 % 1018,2 hPa 0,0 mm 0,0 km/h (0 Bft) S 180 13,5 C 0,0 km/h (0 Bft)
11.06.2015 21:55 16,5 C 16,4 C 82 % 1018,2 hPa 0,0 mm 0,0 km/h (0 Bft) W-SW 247 13,4 C 0,0 km/h (0 Bft)
11.06.2015 22:00 16,5 C 16,4 C 82 % 1018,2 hPa 0,0 mm 1,8 km/h (1 Bft) SW 225 13,4 C 4,9 km/h (1 Bft)
11.06.2015 22:05 16,6 C 16,6 C 81 % 1018,2 hPa 0,0 mm 3,4 km/h (1 Bft) S 180 13,3 C 7,0 km/h (2 Bft)
11.06.2015 22:10 16,6 C 16,6 C 83 % 1018,2 hPa 0,0 mm 3,4 km/h (1 Bft) S-SO 157 13,7 C 3,4 km/h (1 Bft)
11.06.2015 22:15 16,6 C 16,6 C 83 % 1018,4 hPa 0,0 mm 2,1 km/h (1 Bft) O-SO 112 13,7 C 0,0 km/h (0 Bft)
11.06.2015 22:20 16,5 C 16,4 C 83 % 1018,4 hPa 0,0 mm 0,5 km/h (0 Bft) SO 135 13,6 C 0,0 km/h (0 Bft)
11.06.2015 22:25 16,4 C 16,3 C 83 % 1018,4 hPa 0,0 mm 0,5 km/h (0 Bft) W-SW 247 13,5 C 7,0 km/h (2 Bft)
11.06.2015 22:30 16,7 C 16,5 C 83 % 1018,4 hPa 0,0 mm 2,8 km/h (1 Bft) S-SW 202 13,8 C 0,0 km/h (0 Bft)
11.06.2015 22:35 16,5 C 16,4 C 83 % 1018,6 hPa 0,0 mm 3,1 km/h (1 Bft) SW 225 13,6 C 3,6 km/h (1 Bft)
11.06.2015 22:40 16,5 C 16,4 C 83 % 1018,6 hPa 0,0 mm 2,3 km/h (1 Bft) NW 315 13,6 C 3,1 km/h (1 Bft)
11.06.2015 22:45 16,6 C 16,5 C 83 % 1018,6 hPa 0,0 mm 3,9 km/h (1 Bft) SO 135 13,7 C 2,8 km/h (1 Bft)
11.06.2015 22:50 16,4 C 16,4 C 83 % 1018,6 hPa 0,0 mm 3,1 km/h (1 Bft) S 180 13,5 C 0,0 km/h (0 Bft)
11.06.2015 22:55 16,3 C 16,3 C 82 % 1018,6 hPa 0,0 mm 2,6 km/h (1 Bft) SW 225 13,2 C 8,0 km/h (2 Bft)
11.06.2015 23:00 16,2 C 16,2 C 82 % 1018,6 hPa 0,0 mm 0,8 km/h (0 Bft) S-SO 157 13,1 C 0,0 km/h (0 Bft)
11.06.2015 23:05 16,1 C 16,1 C 82 % 1018,6 hPa 0,0 mm 0,8 km/h (0 Bft) SW 225 13,0 C 0,0 km/h (0 Bft)
11.06.2015 23:10 16,4 C 16,3 C 81 % 1018,6 hPa 0,0 mm 2,1 km/h (1 Bft) S 180 13,1 C 4,9 km/h (1 Bft)
11.06.2015 23:15 16,7 C 16,5 C 80 % 1018,5 hPa 0,0 mm 4,1 km/h (1 Bft) W 270 13,2 C 7,8 km/h (2 Bft)
11.06.2015 23:20 16,8 C 16,6 C 78 % 1018,5 hPa 0,0 mm 7,3 km/h (2 Bft) S-SW 202 12,9 C 29,5 km/h (5 Bft)
11.06.2015 23:25 16,4 C 16,2 C 77 % 1018,5 hPa 0,0 mm 8,3 km/h (2 Bft) SW 225 12,4 C 6,2 km/h (2 Bft)
11.06.2015 23:30 15,7 C 15,4 C 78 % 1018,5 hPa 0,0 mm 5,4 km/h (1 Bft) N-NO 22 11,9 C 0,0 km/h (0 Bft)
11.06.2015 23:35 15,2 C 15,0 C 79 % 1018,5 hPa 0,7 mm 3,1 km/h (1 Bft) O-SO 112 11,6 C 0,0 km/h (0 Bft)
11.06.2015 23:40 14,8 C 14,6 C 80 % 1018,5 hPa 0,0 mm 0,8 km/h (0 Bft) W-SW 247 11,4 C 2,6 km/h (1 Bft)
11.06.2015 23:45 14,6 C 14,3 C 81 % 1018,5 hPa 0,7 mm 2,8 km/h (1 Bft) W-NW 292 11,4 C 14,5 km/h (3 Bft)
11.06.2015 23:50 14,3 C 14,1 C 82 % 1018,5 hPa 0,0 mm 3,4 km/h (1 Bft) S 180 11,3 C 0,0 km/h (0 Bft)
11.06.2015 23:55 14,2 C 14,0 C 83 % 1018,1 hPa 0,0 mm 1,8 km/h (1 Bft) O-SO 112 11,4 C 0,0 km/h (0 Bft)
_ Min-Zeit 06:05 06:05 18:25 23:55 - 21:55 - - 06:20 23:55
Minimum _ 12,2 C 12,1 C 65 % 1018,1 hPa - 0,0 km/h (0 Bft) - - 10,4 C 0,0 km/h (0 Bft)
_ Max-Zeit 14:05 12:45 06:10 00:10 23:45 23:25 - - 12:50 23:20
Maximum _ 21,3 C 26,8 C 90 % 1023,3 hPa 0,7 mm 8,3 km/h
SW (2 Bft)
- - 15,2 C 29,5 km/h
S-SW (5 Bft)
Durchschnitt _ 16,6 C 18,2 C 78 % 1020,7 hPa #1,4 mm 2,3 km/h (1 Bft) O-NO - 12,7 C 3,2 km/h (1 Bft)